Time,TemperatureF,DewpointF,PressureIn,WindDirection,WindDirectionDegrees,WindSpeedMPH,WindSpeedGustMPH,Humidity,HourlyPrecipIn,Conditions,Clouds,dailyrainin,SoftwareType,DateUTC
2013-08-26 00:04:00,61.8,58.0,29.93,NNE,18,0.0,3.0,87,0.00,,,0.00,weatherlink.com 1.10,2013-08-26 07:04:00,
2013-08-26 00:19:00,61.8,58.0,29.93,NNE,18,0.0,1.0,87,0.00,,,0.00,weatherlink.com 1.10,2013-08-26 07:19:00,
2013-08-26 00:34:00,61.8,58.0,29.93,NNE,14,1.0,1.0,87,0.00,,,0.00,weatherlink.com 1.10,2013-08-26 07:34:00,
2013-08-26 00:49:00,61.7,58.0,29.93,NNW,340,0.0,1.0,87,0.00,,,0.00,weatherlink.com 1.10,2013-08-26 07:49:00,
2013-08-26 01:04:00,61.7,58.0,29.94,NNW,340,0.0,1.0,87,0.00,,,0.00,weatherlink.com 1.10,2013-08-26 08:04:00,
2013-08-26 01:19:00,61.6,58.0,29.94,WNW,300,0.0,2.0,87,0.00,,,0.00,weatherlink.com 1.10,2013-08-26 08:19:00,
2013-08-26 01:34:00,61.6,58.0,29.95,WNW,299,1.0,1.0,87,0.00,,,0.00,weatherlink.com 1.10,2013-08-26 08:34:00,
2013-08-26 01:50:00,61.1,58.0,29.95,WNW,296,1.0,4.0,89,0.00,,,0.00,weatherlink.com 1.10,2013-08-26 08:50:00,
2013-08-26 02:05:00,60.9,58.0,29.94,WNW,296,1.0,2.0,89,0.00,,,0.00,weatherlink.com 1.10,2013-08-26 09:05:00,
2013-08-26 02:20:00,61.0,58.0,29.94,WNW,296,0.0,2.0,89,0.00,,,0.00,weatherlink.com 1.10,2013-08-26 09:20:00,
2013-08-26 02:35:00,60.7,58.0,29.94,WNW,296,0.0,2.0,90,0.00,,,0.00,weatherlink.com 1.10,2013-08-26 09:35:00,
2013-08-26 02:50:00,60.2,58.0,29.95,WNW,298,0.0,2.0,91,0.00,,,0.00,weatherlink.com 1.10,2013-08-26 09:50:00,
2013-08-26 03:05:00,59.8,58.0,29.95,WNW,298,0.0,1.0,92,0.00,,,0.00,weatherlink.com 1.10,2013-08-26 10:05:00,
2013-08-26 03:20:00,59.4,57.0,29.96,WNW,298,0.0,2.0,92,0.00,,,0.00,weatherlink.com 1.10,2013-08-26 10:20:00,
2013-08-26 03:35:00,59.2,57.0,29.96,WNW,298,0.0,2.0,92,0.00,,,0.00,weatherlink.com 1.10,2013-08-26 10:35:00,
2013-08-26 03:50:00,59.0,57.0,29.96,NNE,28,0.0,0.0,92,0.00,,,0.00,weatherlink.com 1.10,2013-08-26 10:50:00,
2013-08-26 04:05:00,58.3,56.0,29.96,NNW,338,0.0,0.0,91,0.00,,,0.00,weatherlink.com 1.10,2013-08-26 11:05:00,
2013-08-26 04:20:00,57.4,55.0,29.96,NNW,338,0.0,0.0,91,0.00,,,0.00,weatherlink.com 1.10,2013-08-26 11:20:00,
2013-08-26 04:35:00,56.6,54.0,29.96,NNE,17,0.0,0.0,89,0.00,,,0.00,weatherlink.com 1.10,2013-08-26 11:35:00,
2013-08-26 04:50:00,56.2,53.0,29.96,NNE,17,0.0,0.0,89,0.00,,,0.00,weatherlink.com 1.10,2013-08-26 11:50:00,
2013-08-26 05:05:00,55.7,53.0,29.97,NNE,17,0.0,0.0,89,0.00,,,0.00,weatherlink.com 1.10,2013-08-26 12:05:00,
2013-08-26 05:20:00,55.5,53.0,29.96,NNE,17,0.0,0.0,90,0.00,,,0.00,weatherlink.com 1.10,2013-08-26 12:20:00,
2013-08-26 05:35:00,55.5,53.0,29.97,NNE,17,0.0,0.0,91,0.00,,,0.00,weatherlink.com 1.10,2013-08-26 12:35:00,
2013-08-26 05:50:00,55.5,53.0,29.97,NNE,31,1.0,2.0,90,0.00,,,0.00,weatherlink.com 1.10,2013-08-26 12:50:00,
2013-08-26 06:05:00,55.4,52.0,29.97,NNE,31,1.0,2.0,88,0.00,,,0.00,weatherlink.com 1.10,2013-08-26 13:05:00,
2013-08-26 06:20:00,55.8,53.0,29.98,NNE,31,1.0,2.0,90,0.00,,,0.00,weatherlink.com 1.10,2013-08-26 13:20:00,
2013-08-26 06:35:00,55.8,53.0,29.98,ENE,61,2.0,3.0,91,0.00,,,0.00,weatherlink.com 1.10,2013-08-26 13:35:00,
2013-08-26 06:50:00,55.4,54.0,29.99,NE,48,1.0,2.0,93,0.00,,,0.00,weatherlink.com 1.10,2013-08-26 13:50:00,
2013-08-26 07:05:00,55.0,53.0,29.99,ENE,57,1.0,3.0,93,0.00,,,0.00,weatherlink.com 1.10,2013-08-26 14:05:00,
2013-08-26 07:20:00,54.8,53.0,30.00,ENE,63,2.0,3.0,94,0.00,,,0.00,weatherlink.com 1.10,2013-08-26 14:20:00,
2013-08-26 07:35:00,54.9,53.0,30.00,NE,56,2.0,4.0,94,0.00,,,0.00,weatherlink.com 1.10,2013-08-26 14:35:00,
2013-08-26 07:50:00,55.2,52.0,30.00,NNE,24,1.0,2.0,90,0.00,,,0.00,weatherlink.com 1.10,2013-08-26 14:50:00,
2013-08-26 08:05:00,55.7,52.0,30.01,NNE,24,1.0,1.0,86,0.00,,,0.00,weatherlink.com 1.10,2013-08-26 15:05:00,
2013-08-26 08:20:00,56.5,51.0,30.01,NNE,24,1.0,1.0,82,0.00,,,0.00,weatherlink.com 1.10,2013-08-26 15:20:00,
2013-08-26 08:35:00,58.2,52.0,30.01,NW,306,1.0,2.0,79,0.00,,,0.00,weatherlink.com 1.10,2013-08-26 15:35:00,
2013-08-26 08:52:00,60.6,53.0,30.01,West,269,0.0,3.0,76,0.00,,,0.00,weatherlink.com 1.10,2013-08-26 15:52:00,
2013-08-26 09:06:00,62.1,53.0,30.01,WNW,302,1.0,3.0,73,0.00,,,0.00,weatherlink.com 1.10,2013-08-26 16:06:00,
2013-08-26 09:21:00,63.3,54.0,30.02,WSW,254,1.0,3.0,71,0.00,,,0.00,weatherlink.com 1.10,2013-08-26 16:21:00,
2013-08-26 09:36:00,63.2,53.0,30.02,WSW,249,2.0,4.0,70,0.00,,,0.00,weatherlink.com 1.10,2013-08-26 16:36:00,
2013-08-26 09:51:00,64.6,53.0,30.02,West,274,1.0,4.0,67,0.00,,,0.00,weatherlink.com 1.10,2013-08-26 16:51:00,
2013-08-26 10:06:00,65.1,53.0,30.02,NNW,333,0.0,5.0,64,0.00,,,0.00,weatherlink.com 1.10,2013-08-26 17:06:00,
2013-08-26 10:21:00,66.6,53.0,30.02,South,179,1.0,3.0,61,0.00,,,0.00,weatherlink.com 1.10,2013-08-26 17:21:00,
2013-08-26 10:36:00,66.8,52.0,30.02,SSW,194,1.0,5.0,59,0.00,,,0.00,weatherlink.com 1.10,2013-08-26 17:36:00,
2013-08-26 10:51:00,69.3,52.0,30.01,WNW,294,2.0,4.0,54,0.00,,,0.00,weatherlink.com 1.10,2013-08-26 17:51:00,
2013-08-26 11:06:00,69.1,52.0,30.01,WNW,286,2.0,7.0,54,0.00,,,0.00,weatherlink.com 1.10,2013-08-26 18:06:00,
2013-08-26 11:21:00,72.2,52.0,30.00,WNW,300,2.0,6.0,49,0.00,,,0.00,weatherlink.com 1.10,2013-08-26 18:21:00,
2013-08-26 11:36:00,72.8,51.0,30.00,WNW,297,2.0,6.0,46,0.00,,,0.00,weatherlink.com 1.10,2013-08-26 18:36:00,
2013-08-26 11:51:00,73.3,51.0,30.00,WNW,300,3.0,8.0,45,0.00,,,0.00,weatherlink.com 1.10,2013-08-26 18:51:00,
2013-08-26 12:06:00,73.4,51.0,30.00,West,263,3.0,8.0,46,0.00,,,0.00,weatherlink.com 1.10,2013-08-26 19:06:00,
2013-08-26 12:21:00,75.7,53.0,30.00,SW,225,1.0,6.0,45,0.00,,,0.00,weatherlink.com 1.10,2013-08-26 19:21:00,
2013-08-26 12:36:00,76.1,53.0,29.99,NW,313,1.0,8.0,45,0.00,,,0.00,weatherlink.com 1.10,2013-08-26 19:36:00,
2013-08-26 12:51:00,76.2,53.0,29.99,South,184,3.0,7.0,44,0.00,,,0.00,weatherlink.com 1.10,2013-08-26 19:51:00,
2013-08-26 13:06:00,76.5,55.0,29.98,WNW,298,1.0,10.0,47,0.00,,,0.00,weatherlink.com 1.10,2013-08-26 20:06:00,
2013-08-26 13:21:00,76.6,55.0,29.98,West,279,3.0,9.0,47,0.00,,,0.00,weatherlink.com 1.10,2013-08-26 20:21:00,
2013-08-26 13:36:00,77.2,56.0,29.98,West,266,3.0,8.0,48,0.00,,,0.00,weatherlink.com 1.10,2013-08-26 20:36:00,
2013-08-26 13:51:00,76.7,56.0,29.98,WNW,292,4.0,11.0,49,0.00,,,0.00,weatherlink.com 1.10,2013-08-26 20:51:00,
2013-08-26 14:06:00,76.1,54.0,29.98,NW,316,3.0,10.0,47,0.00,,,0.00,weatherlink.com 1.10,2013-08-26 21:06:00,
2013-08-26 14:21:00,75.9,54.0,29.98,SSW,208,4.0,7.0,46,0.00,,,0.00,weatherlink.com 1.10,2013-08-26 21:21:00,
2013-08-26 14:36:00,76.7,54.0,29.98,WNW,303,3.0,12.0,46,0.00,,,0.00,weatherlink.com 1.10,2013-08-26 21:36:00,
2013-08-26 14:51:00,76.2,54.0,29.98,WNW,287,5.0,8.0,46,0.00,,,0.00,weatherlink.com 1.10,2013-08-26 21:51:00,
2013-08-26 15:06:00,76.8,54.0,29.97,NW,322,8.0,8.0,45,0.00,,,0.00,weatherlink.com 1.10,2013-08-26 22:06:00,
2013-08-26 15:21:00,75.4,54.0,29.97,West,269,4.0,9.0,47,0.00,,,0.00,weatherlink.com 1.10,2013-08-26 22:21:00,
2013-08-26 15:36:00,75.5,54.0,29.96,WSW,250,2.0,11.0,47,0.00,,,0.00,weatherlink.com 1.10,2013-08-26 22:36:00,
2013-08-26 15:51:00,75.4,53.0,29.96,WNW,296,3.0,10.0,46,0.00,,,0.00,weatherlink.com 1.10,2013-08-26 22:51:00,
2013-08-26 16:06:00,75.5,54.0,29.96,WSW,249,2.0,10.0,47,0.00,,,0.00,weatherlink.com 1.10,2013-08-26 23:06:00,
2013-08-26 16:21:00,75.8,53.0,29.96,WNW,292,5.0,8.0,46,0.00,,,0.00,weatherlink.com 1.10,2013-08-26 23:21:00,
2013-08-26 16:36:00,75.1,53.0,29.96,SW,235,5.0,9.0,47,0.00,,,0.00,weatherlink.com 1.10,2013-08-26 23:36:00,
2013-08-26 16:51:00,74.3,53.0,29.95,SW,233,2.0,13.0,47,0.00,,,0.00,weatherlink.com 1.10,2013-08-26 23:51:00,
2013-08-26 17:06:00,74.1,54.0,29.95,NW,316,6.0,10.0,50,0.00,,,0.00,weatherlink.com 1.10,2013-08-27 00:06:00,
2013-08-26 17:21:00,75.1,54.0,29.95,WNW,301,2.0,9.0,48,0.00,,,0.00,weatherlink.com 1.10,2013-08-27 00:21:00,
2013-08-26 17:36:00,74.4,55.0,29.95,West,273,1.0,9.0,51,0.00,,,0.00,weatherlink.com 1.10,2013-08-27 00:36:00,
2013-08-26 17:52:00,74.8,53.0,29.95,NW,325,1.0,6.0,46,0.00,,,0.00,weatherlink.com 1.10,2013-08-27 00:52:00,
2013-08-26 18:07:00,74.3,52.0,29.95,WNW,290,1.0,7.0,45,0.00,,,0.00,weatherlink.com 1.10,2013-08-27 01:07:00,
2013-08-26 18:22:00,74.6,51.0,29.95,NW,312,1.0,5.0,44,0.00,,,0.00,weatherlink.com 1.10,2013-08-27 01:22:00,
2013-08-26 18:38:00,73.2,52.0,29.95,WSW,246,3.0,6.0,47,0.00,,,0.00,weatherlink.com 1.10,2013-08-27 01:38:00,
2013-08-26 18:52:00,71.4,52.0,29.95,WNW,300,1.0,6.0,50,0.00,,,0.00,weatherlink.com 1.10,2013-08-27 01:52:00,
2013-08-26 19:07:00,69.9,52.0,29.95,WNW,300,3.0,4.0,53,0.00,,,0.00,weatherlink.com 1.10,2013-08-27 02:07:00,
2013-08-26 19:22:00,68.6,52.0,29.95,WNW,290,2.0,4.0,55,0.00,,,0.00,weatherlink.com 1.10,2013-08-27 02:22:00,
2013-08-26 19:37:00,67.3,51.0,29.95,WNW,303,1.0,3.0,57,0.00,,,0.00,weatherlink.com 1.10,2013-08-27 02:37:00,
2013-08-26 19:52:00,66.5,52.0,29.96,NNE,30,0.0,2.0,59,0.00,,,0.00,weatherlink.com 1.10,2013-08-27 02:52:00,
2013-08-26 20:07:00,65.3,51.0,29.96,North,351,1.0,2.0,60,0.00,,,0.00,weatherlink.com 1.10,2013-08-27 03:07:00,
2013-08-26 20:22:00,64.3,51.0,29.96,NNW,338,1.0,3.0,62,0.00,,,0.00,weatherlink.com 1.10,2013-08-27 03:22:00,
2013-08-26 20:37:00,63.5,51.0,29.96,NNW,348,1.0,2.0,63,0.00,,,0.00,weatherlink.com 1.10,2013-08-27 03:37:00,
2013-08-26 20:52:00,62.6,51.0,29.96,NNW,345,1.0,2.0,66,0.00,,,0.00,weatherlink.com 1.10,2013-08-27 03:52:00,
2013-08-26 21:07:00,62.1,51.0,29.96,NW,325,1.0,2.0,67,0.00,,,0.00,weatherlink.com 1.10,2013-08-27 04:07:00,
2013-08-26 21:22:00,61.5,51.0,29.96,NNW,341,0.0,2.0,69,0.00,,,0.00,weatherlink.com 1.10,2013-08-27 04:22:00,
2013-08-26 21:37:00,61.0,52.0,29.96,NNE,20,0.0,2.0,71,0.00,,,0.00,weatherlink.com 1.10,2013-08-27 04:37:00,
2013-08-26 21:52:00,60.4,51.0,29.96,NNE,25,0.0,2.0,72,0.00,,,0.00,weatherlink.com 1.10,2013-08-27 04:52:00,
2013-08-26 22:07:00,59.9,52.0,29.96,NNE,25,1.0,2.0,74,0.00,,,0.00,weatherlink.com 1.10,2013-08-27 05:07:00,
2013-08-26 22:22:00,59.3,52.0,29.96,NNE,25,1.0,2.0,76,0.00,,,0.00,weatherlink.com 1.10,2013-08-27 05:22:00,
2013-08-26 22:37:00,59.0,52.0,29.96,NE,40,1.0,2.0,77,0.00,,,0.00,weatherlink.com 1.10,2013-08-27 05:37:00,
2013-08-26 22:52:00,58.8,52.0,29.96,NE,40,0.0,1.0,79,0.00,,,0.00,weatherlink.com 1.10,2013-08-27 05:52:00,
2013-08-26 23:07:00,58.5,52.0,29.96,NE,40,0.0,0.0,80,0.00,,,0.00,weatherlink.com 1.10,2013-08-27 06:07:00,
2013-08-26 23:22:00,58.1,52.0,29.95,NE,40,0.0,0.0,80,0.00,,,0.00,weatherlink.com 1.10,2013-08-27 06:22:00,
2013-08-26 23:37:00,57.7,52.0,29.95,NE,40,0.0,0.0,81,0.00,,,0.00,weatherlink.com 1.10,2013-08-27 06:37:00,
2013-08-26 23:52:00,57.4,52.0,29.95,NE,40,0.0,0.0,83,0.00,,,0.00,weatherlink.com 1.10,2013-08-27 06:52:00,